Powrót do katalogu

STARLINK-30595

AktywnyŁącznośćVLEO
NORAD 58111·PAYLOAD·🇺🇸 United States

Wystrzelony Oct 21, 2023 z Vandenberg Space Force Base

Loading…

Następne Przeloty (najbliższe 24 godziny)

TLE

ŚwieżeSource: CelesTrak SupGP

Epoka: Sep 14, 2026, 22:16 UTC

1 58111C 23161Q   26257.92826389 -.00011973  00000+0 -35385-3 0  2574
2 58111  53.1591   5.9601 0001057  67.6070 273.7886 15.34386999    11

Śledź STARLINK-30595 w czasie rzeczywistym z AllMySat

Download on the App Store